Location: OLV Amersfoort
(52.1552°N, 5.3872°E)
Time: 08:25:34
(UTC+02:00)

ISS - Visible Passes

Search period start: 22 September 2017 00:00
Search period end: 02 October 2017 00:00
Orbit: 401 x 407 km, 51.6° (Epoch: 22 September)

Date Brightness Start Highest point End Pass type
(mag) Time Alt. Az. Time Alt. Az. Time Alt. Az.
26 Sep -1.6 20:28:41 10° SSE 20:29:45 11° SE 20:29:51 11° SE visible
26 Sep -0.9 22:02:28 10° SW 22:02:32 10° SW 22:02:32 10° SW visible
27 Sep -2.5 21:10:27 10° SSW 21:12:41 27° S 21:12:41 27° S visible
28 Sep -2.2 20:18:39 10° SSW 20:21:08 20° SE 20:22:40 15° ESE visible
28 Sep -1.8 21:53:57 10° WSW 21:55:19 23° WSW 21:55:19 23° WSW visible
29 Sep -3.5 21:01:42 10° SW 21:04:52 46° SSE 21:05:10 44° SE visible
30 Sep -2.9 20:09:35 10° SW 20:12:34 33° SSE 20:14:55 14° E visible
30 Sep -2.4 21:45:32 10° WSW 21:47:33 34° WSW 21:47:33 34° WSW visible
01 Oct -3.8 20:53:10 10° WSW 20:56:25 66° SSE 20:57:14 45° ESE visible
01 Oct -0.6 22:29:34 10° W 22:29:52 12° W 22:29:52 12° W visible
